TimeMST,TemperatureF,Dew PointF,Humidity,Sea Level PressureIn,VisibilityMPH,Wind Direction,Wind SpeedMPH,Gust SpeedMPH,PrecipitationIn,Events,Conditions,WindDirDegrees,DateUTC
12:55 AM,20.8,16.7,84,30.37,10.0,NNW,5.8,-,N/A,,Clear,340,2012-11-16 07:55:00
1:55 AM,18.7,15.1,86,30.37,10.0,North,4.6,-,N/A,,Clear,360,2012-11-16 08:55:00
2:55 AM,18.7,15.1,86,30.38,10.0,North,5.8,-,N/A,,Clear,360,2012-11-16 09:55:00
3:55 AM,18.3,15.1,87,30.36,10.0,North,4.6,-,N/A,,Clear,350,2012-11-16 10:55:00
4:55 AM,16.9,13.5,86,30.39,10.0,North,9.2,-,N/A,,Clear,350,2012-11-16 11:55:00
5:55 AM,18.1,14.9,87,30.38,10.0,North,8.1,-,N/A,,Clear,360,2012-11-16 12:55:00
6:55 AM,18.3,14.5,85,30.39,10.0,North,10.4,-,N/A,,Clear,360,2012-11-16 13:55:00
7:55 AM,25.0,20.7,84,30.37,10.0,North,8.1,-,N/A,,Clear,360,2012-11-16 14:55:00
8:55 AM,34.0,25.5,71,30.29,10.0,Calm,Calm,-,N/A,,Clear,0,2012-11-16 15:55:00
9:55 AM,42.6,25.0,50,30.25,10.0,Calm,Calm,-,N/A,,Clear,0,2012-11-16 16:55:00
10:58 AM,46.4,23.7,41,30.22,10.0,SSE,5.8,-,N/A,,Partly Cloudy,160,2012-11-16 17:58:00
11:58 AM,46.8,22.8,39,30.19,10.0,South,9.2,-,N/A,,Clear,170,2012-11-16 18:58:00
12:58 PM,49.8,21.0,32,30.17,10.0,SSE,6.9,-,N/A,,Partly Cloudy,160,2012-11-16 19:58:00
1:58 PM,52.2,19.4,28,30.16,10.0,South,5.8,-,N/A,,Clear,180,2012-11-16 20:58:00
2:58 PM,52.3,19.6,28,30.15,10.0,South,9.2,-,N/A,,Clear,180,2012-11-16 21:58:00
3:58 PM,50.2,19.9,30,30.15,10.0,SSE,9.2,-,N/A,,Clear,160,2012-11-16 22:58:00
4:58 PM,42.6,21.6,43,30.14,10.0,SSE,8.1,-,N/A,,Clear,160,2012-11-16 23:58:00
5:58 PM,40.1,20.7,46,30.16,10.0,NNE,2.3,-,N/A,,Clear,20,2012-11-17 00:58:00
6:58 PM,30.6,19.0,62,30.15,10.0,NNE,8.1,-,N/A,,Clear,20,2012-11-17 01:58:00
7:58 PM,28.6,18.5,66,30.14,10.0,North,9.2,-,N/A,,Clear,360,2012-11-17 02:58:00
8:58 PM,27.9,17.6,65,30.14,10.0,North,11.5,-,N/A,,Clear,350,2012-11-17 03:58:00
9:58 PM,27.0,17.8,68,30.14,10.0,North,12.7,-,N/A,,Clear,10,2012-11-17 04:58:00
10:58 PM,27.5,16.7,64,30.13,10.0,NE,10.4,-,N/A,,Clear,50,2012-11-17 05:58:00
11:58 PM,35.2,16.9,47,30.09,10.0,NNE,9.2,-,N/A,,Clear,20,2012-11-17 06:58:00